Weather History for KCEZ - August, 2013

Change the Weather History Date:

Wednesday, August 28, 2013

  Actual Average Record
Temperature  
Mean Temperature 71 °F 67 °F  
Max Temperature 87 °F 83 °F 93 °F (2011)
Min Temperature 54 °F 50 °F 39 °F (2004)
Degree Days  
Heating Degree Days 0 1  
Month to date heating degree days 0 4  
Since 1 June heating degree days 12 82  
Since 1 July heating degree days 0 7  
Cooling Degree Days 6 3  
Month to date cooling degree days 156 140  
Year to date cooling degree days 581 404  
Since 1 June cooling degree days 581 399  
Growing Degree Days 20 (Base 50)    
Moisture  
Dew Point 52 °F    
Average Humidity 58    
Maximum Humidity 93    
Minimum Humidity 23    
Precipitation  
Precipitation 0.00 in 0.06 in 0.06 in (1996)
Month to date precipitation 3.22 1.37  
Year to date precipitation 7.49 8.28  
Sea Level Pressure  
Sea Level Pressure 30.00 in    
Wind  
Wind Speed 4 mph (ENE)    
Max Wind Speed 9 mph    
Max Gust Speed 16 mph    
Visibility 10 miles    
Events      
T = Trace of Precipitation, MM = Missing Value Source: NWS Daily Summary

Daily Weather History Graph

Daily Weather History Graph

Search for Another Location

Airport or City:

Trip Planner

Search our weather history database for the weather conditions in past years. The results will help you decide how hot, cold, wet, or windy it might be!

Date:

Astronomy

Aug. 28, 2013 Rise Set
Actual Time 6:41 AM MDT 7:48 PM MDT
Civil Twilight 6:15 AM MDT 8:15 PM MDT
Nautical Twilight 5:43 AM MDT 8:47 PM MDT
Astronomical Twilight 5:09 AM MDT 9:20 PM MDT
Moon No Moon Rise 2:25 PM MDT (8/28)
Length of Visible Light 14h 00m
Length of Day
13h 06m
Waning Gibbous, 47% of the Moon is Illuminated
Aug 28
Waning Gibbous
Sep 5
New
Sep 12
First Quarter
Sep 19
Full
Sep 26
Last Quarter

Hourly Weather History & Observations

Time (MDT) Temp. Heat Index Dew Point Humidity Pressure Visibility Wind Dir Wind Speed Gust Speed Precip Events Conditions
12:53 AM 60.1 °F - 55.9 °F 86% 30.00 in 10.0 mi East 3.5 mph - N/A   Clear
1:53 AM 59.0 °F - 55.0 °F 87% 29.97 in 10.0 mi ESE 4.6 mph - N/A   Clear
2:53 AM 57.9 °F - 55.0 °F 90% 29.98 in 10.0 mi ENE 3.5 mph - N/A   Clear
3:53 AM 57.9 °F - 54.0 °F 87% 29.97 in 10.0 mi Calm Calm - N/A   Clear
4:53 AM 55.9 °F - 53.1 °F 90% 29.98 in 10.0 mi North - - N/A   Clear
5:53 AM 55.0 °F - 52.0 °F 89% 29.99 in 9.0 mi NE 4.6 mph - N/A   Clear
6:53 AM 55.0 °F - 52.0 °F 89% 30.02 in 10.0 mi Calm Calm - N/A   Clear
7:53 AM 59.0 °F - 55.0 °F 87% 30.04 in 9.0 mi East 3.5 mph - N/A   Clear
8:53 AM 64.0 °F - 54.0 °F 70% 30.04 in 10.0 mi Calm Calm - N/A   Clear
9:53 AM 70.0 °F - 54.0 °F 57% 30.04 in 10.0 mi Calm Calm - N/A   Clear
10:53 AM 75.0 °F - 55.9 °F 51% 30.03 in 10.0 mi WSW 3.5 mph - N/A   Clear
11:53 AM 79.0 °F - 55.9 °F 45% 30.02 in 10.0 mi SSW 6.9 mph - N/A   Clear
12:53 PM 82.0 °F 81.6 °F 55.9 °F 41% 30.02 in 10.0 mi South 8.1 mph - N/A   Clear
1:53 PM 82.9 °F 82.0 °F 55.0 °F 38% 30.00 in 10.0 mi SW 9.2 mph 16.1 mph N/A   Clear
2:53 PM 84.9 °F - 48.0 °F 28% 29.96 in 10.0 mi Calm Calm - N/A   Clear
3:53 PM 84.9 °F - 46.9 °F 27% 29.95 in 10.0 mi Variable 3.5 mph - N/A   Clear
4:53 PM 86.0 °F - 46.0 °F 25% 29.94 in 10.0 mi NW 6.9 mph - N/A   Clear
5:53 PM 86.0 °F - 45.0 °F 24% 29.94 in 10.0 mi West 8.1 mph - N/A   Clear
6:53 PM 84.0 °F - 43.0 °F 24% 29.95 in 10.0 mi West 8.1 mph - N/A   Clear
7:53 PM 75.9 °F - 46.0 °F 35% 29.98 in 10.0 mi Calm Calm - N/A   Clear
8:53 PM 69.1 °F - 53.1 °F 57% 30.01 in 10.0 mi ENE 3.5 mph - N/A   Scattered Clouds
9:53 PM 66.9 °F - 54.0 °F 63% 30.02 in 10.0 mi East 4.6 mph - N/A   Clear
10:53 PM 64.0 °F - 53.1 °F 67% 30.02 in 10.0 mi ENE 6.9 mph - N/A   Clear
11:53 PM 62.1 °F - 53.1 °F 72% 30.03 in 10.0 mi North 8.1 mph - N/A   Clear